Regional Weather Roundup
Issued by NWS

Home | Current Version | Previous Version | Graphics & Text | Print | Product List | Glossary Off
Versions: 1 2 3 4 5 6 7 8 9 10 11 12 13 14 15 16 17 18 19 20 21 22 23 24 25 26 27 28 29 30 31 32 33 34 35 36 37 38 39 40 41 42 43 44 45 46 47 48 49 50

000
ASUS43 KLSX 201207
RWRMO

WEATHER SUMMARY FOR MISSOURI
NATIONAL WEATHER SERVICE SPRINGFIELD MO
600 AM CST FRI JAN 20 2017

NOTE: "FAIR" INDICATES FEW OR NO CLOUDS BELOW 12,000 FEET WITH NO
       SIGNIFICANT WEATHER AND/OR OBSTRUCTIONS TO VISIBILITY.
       CURRENT SKY AND/OR WEATHER CONDITIONS ARE NOT AVAILABLE FOR
       CHILLICOTHE AND FARMINGTON.

MOZ001>031-035>038-043-044-053-054-201300-
...NORTHERN AND WESTERN MISSOURI...

CITY           SKY/WX    TMP DP  RH WIND       PRES   REMARKS
KANSAS CTY INT FOG       45  43  93 S8        29.57R VSB 1/2
6HR MIN TEMP:  44; 6HR MAX TEMP:  46; 6HR PCP:  0.01;

KANSAS C DTWN  CLOUDY    47  46  97 CALM      29.57S
6HR MIN TEMP:  45; 6HR MAX TEMP:  47;

LEE`S SUMMIT   CLOUDY    46  46 100 CALM      29.57S FOG
6HR MIN TEMP:  45; 6HR MAX TEMP:  46;

ST JOSEPH      CLOUDY    43  43 100 CALM      29.59R
6HR MIN TEMP:  42; 6HR MAX TEMP:  44;

CHILLICOTHE      N/A     41  41 100 CALM      29.59R
6HR MIN TEMP:  40; 6HR MAX TEMP:  44;

KIRKSVILLE     FOG       40  40 100 CALM      29.59R VSB 1/4
6HR MIN TEMP:  40; 6HR MAX TEMP:  41;


$$
MOZ066>068-077>081-088>096-101>105-201300-
...SOUTHWEST MISSOURI...

CITY           SKY/WX    TMP DP  RH WIND       PRES   REMARKS
SPRINGFIELD    CLOUDY    48  47  96 SE7       29.58S
6HR MIN TEMP:  45; 6HR MAX TEMP:  48;

JOPLIN         CLOUDY    49  49 100 CALM      29.57R FOG
6HR MIN TEMP:  49; 6HR MAX TEMP:  50; 6HR PCP: TRACE;

BRANSON        FOG       41  41 100 SE6       29.62R VSB 3/4

$$
MOZ032>034-039>042-045>050-055>058-069>072-201300-
...CENTRAL MISSOURI...

CITY           SKY/WX    TMP DP  RH WIND       PRES   REMARKS
COLUMBIA       LGT RAIN  46  46 100 CALM      29.59S FOG
6HR MIN TEMP:  43; 6HR MAX TEMP:  46; 6HR PCP:  0.01;

JEFFERSON CITY FOG       46  46 100 SE6       29.61R VSB 1/2
6HR MIN TEMP:  46; 6HR MAX TEMP:  47; 6HR PCP: TRACE;

ROLLA          CLOUDY    48  48 100 S6        29.60S
6HR MIN TEMP:  48; 6HR MAX TEMP:  49;

SEDALIA        FOG       44  43  96 CALM      29.60R VSB 1/4
6HR MIN TEMP:  42; 6HR MAX TEMP:  47;

WHITEMAN AFB   FOG       44  44 100 S6        29.58R VSB 1/2
WARRENSBURG    FOG       45  45 100 SE6       29.58R VSB 1/4
OSAGE BEACH    CLOUDY    47  47 100 S3        29.61R FOG

$$
MOZ051-052-059>065-201300-
...EAST CENTRAL MISSOURI...

CITY           SKY/WX    TMP DP  RH WIND       PRES   REMARKS
ST LOUIS INTL  CLOUDY    49  46  90 S3        29.63R FOG
6HR MIN TEMP:  46; 6HR MAX TEMP:  48;

SPIRIT OF STL  CLOUDY    45  45 100 CALM      29.63R FOG
6HR MIN TEMP:  44; 6HR MAX TEMP:  46; 6HR PCP:  0.01;

ST CHARLES     FOG       44  44 100 E3        29.61S VSB 1/2
6HR MIN TEMP:  44; 6HR MAX TEMP:  45;


$$
MOZ072>076-082>087-097>100-106>115-201300-
...SOUTH CENTRAL AND SOUTHEAST MISSOURI...

CITY           SKY/WX    TMP DP  RH WIND       PRES   REMARKS
CAPE GIRARDEAU CLOUDY    51  48  89 SW9       29.67R
6HR MIN TEMP:  51; 6HR MAX TEMP:  53;

FARMINGTON     CLOUDY    48  47  96 CALM      29.64S
6HR MIN TEMP:  48; 6HR MAX TEMP:  49;

POPLAR BLUFF   CLOUDY    50  49  96 S5        29.68R
6HR MIN TEMP:  50; 6HR MAX TEMP:  51;

WEST PLAINS    CLOUDY    49  48  97 S7        29.64R FOG
6HR MIN TEMP:  48; 6HR MAX TEMP:  49;


$$



USA.gov is the U.S. government's official web portal to all federal, state and local government web resources and services.